GW2745 Weather Reports


Display with metric or nautical units.
time (UTC)temp
F
wind
direction
speed
MPH
gust
MPH
rain 1hr
in
rain 24hr
in
rain mn
in
humidity
%
barometer
mb
20260508134311 67 34 4.0 4.0 0.00 0.00 0.00 33 1013.6
20260508133808 67 36 3.0 3.0 0.00 0.00 0.00 33 1013.5
20260508133306 66 41 2.0 3.0 0.00 0.00 0.00 34 1013.5
20260508132803 65 33 3.0 5.0 0.00 0.00 0.00 35 1013.4
20260508132300 64 44 4.0 5.0 0.00 0.00 0.00 36 1013.3
20260508131755 64 36 4.0 5.0 0.00 0.00 0.00 36 1013.6
20260508131252 64 32 3.0 3.0 0.00 0.00 0.00 35 1013.3
20260508130748 64 23 2.0 3.0 0.00 0.00 0.00 34 1013.1
20260508130246 65 38 3.0 4.0 0.00 0.00 0.00 35 1013.2
20260508125741 66 41 2.0 2.0 0.00 0.00 0.00 25 1013.1
20260508125238 67 39 0.0 3.0 0.00 0.00 0.00 23 1013.0
20260508124736 67 93 3.0 3.0 0.00 0.00 0.00 28 1012.9
20260508124233 66 114 2.0 3.0 0.00 0.00 0.00 28 1012.9
20260508123731 65 79 2.0 3.0 0.00 0.00 0.00 29 1012.7
20260508123229 67 74 2.0 4.0 0.00 0.00 0.00 28 1012.9
20260508122725 69 38 3.0 5.0 0.00 0.00 0.00 27 1012.9
20260508122222 69 38 3.0 4.0 0.00 0.00 0.00 24 1012.9
20260508121719 72 254 0.0 4.0 0.00 0.00 0.00 22 1012.8
20260508121218 72 256 3.0 4.0 0.00 0.00 0.00 23 1012.7
20260508120715 73 261 3.0 4.0 0.00 0.00 0.00 23 1012.7
20260508120213 73 267 3.0 4.0 0.00 0.00 0.00 22 1012.8
20260508115711 73 275 3.0 3.0 0.00 0.00 0.00 22 1012.5
20260508115207 74 277 3.0 3.0 0.00 0.00 0.00 22 1012.8
20260508114704 74 264 3.0 4.0 0.00 0.00 0.00 21 1012.9
20260508114201 74 254 4.0 4.0 0.00 0.00 0.00 21 1012.7
20260508113657 74 242 4.0 4.0 0.00 0.00 0.00 21 1012.5
20260508113156 74 258 4.0 4.0 0.00 0.00 0.00 21 1012.4
20260508112652 74 244 3.0 3.0 0.00 0.00 0.00 21 1012.4
20260508112149 75 241 3.0 4.0 0.00 0.00 0.00 21 1012.4
20260508111645 74 240 3.0 4.0 0.00 0.00 0.00 21 1012.5
20260508111143 73 240 3.0 4.0 0.00 0.00 0.00 21 1012.3
20260508110640 73 229 2.0 3.0 0.00 0.00 0.00 21 1012.4
20260508110137 73 233 1.0 2.0 0.00 0.00 0.00 21 1012.5
20260508105631 73 197 1.0 2.0 0.00 0.00 0.00 21 1012.3
20260508105128 73 252 1.0 2.0 0.00 0.00 0.00 21 1012.4
20260508104626 73 261 0.0 1.0 0.00 0.00 0.00 21 1012.4
20260508104122 74 196 2.0 2.0 0.00 0.00 0.00 20 1012.3
20260508103620 74 236 2.0 2.0 0.00 0.00 0.00 20 1012.4
20260508103117 74 292 3.0 4.0 0.00 0.00 0.00 20 1012.5
20260508102614 73 274 2.0 4.0 0.00 0.00 0.00 20 1012.1
20260508102112 74 323 4.0 7.0 0.00 0.00 0.00 20 1012.4
20260508101609 75 320 6.0 7.0 0.00 0.00 0.00 21 1012.3
20260508101106 74 252 4.0 5.0 0.00 0.00 0.00 20 1012.3
20260508100604 75 262 2.0 3.0 0.00 0.00 0.00 19 1012.2
20260508100101 75 284 3.0 3.0 0.00 0.00 0.00 20 1012.1
20260508095558 73 242 3.0 3.0 0.00 0.00 0.00 20 1012.1
20260508095054 74 296 2.0 3.0 0.00 0.00 0.00 20 1012.1
20260508094552 74 216 2.0 2.0 0.00 0.00 0.00 21 1012.0
20260508094049 73 209 1.0 2.0 0.00 0.00 0.00 21 1012.0
20260508093546 73 209 0.0 1.0 0.00 0.00 0.00 22 1012.1
20260508093043 72 314 1.0 2.0 0.00 0.00 0.00 23 1012.0
20260508092541 71 137 2.0 4.0 0.00 0.00 0.00 24 1012.0
20260508092040 72 168 6.0 6.0 0.00 0.00 0.00 24 1012.0
20260508091536 71 173 3.0 4.0 0.00 0.00 0.00 24 1012.1
20260508091033 71 147 0.0 2.0 0.00 0.00 0.00 24 1012.0
20260508090531 69 142 4.0 4.0 0.00 0.00 0.00 26 1012.1
20260508090027 69 122 4.0 5.0 0.00 0.00 0.00 26 1012.1
20260508085524 69 159 3.0 4.0 0.00 0.00 0.00 25 1012.2
20260508085021 69 145 4.0 5.0 0.00 0.00 0.00 24 1012.1
20260508084518 69 136 7.0 7.0 0.00 0.00 0.00 25 1011.9
20260508084015 70 154 5.0 5.0 0.00 0.00 0.00 22 1012.1
20260508083512 70 148 4.0 4.0 0.00 0.00 0.00 20 1012.2
20260508083009 70 140 5.0 6.0 0.00 0.00 0.00 20 1012.2
20260508082504 73 144 4.0 5.0 0.00 0.00 0.00 20 1012.3
20260508082002 72 150 5.0 5.0 0.00 0.00 0.00 19 1012.2
20260508081459 72 129 3.0 3.0 0.00 0.00 0.00 18 1012.4
20260508080955 71 150 4.0 5.0 0.00 0.00 0.00 18 1012.3
20260508080454 71 138 3.0 4.0 0.00 0.00 0.00 18 1012.5
20260508075951 70 132 2.0 2.0 0.00 0.00 0.00 18 1012.7
20260508075448 72 132 3.0 4.0 0.00 0.00 0.00 17 1012.5
20260508074945 74 157 4.0 4.0 0.00 0.00 0.00 17 1012.4
20260508074443 74 158 5.0 5.0 0.00 0.00 0.00 18 1012.4
20260508073939 76 185 3.0 4.0 0.00 0.00 0.00 17 1012.2
20260508073437 77 252 2.0 3.0 0.00 0.00 0.00 17 1012.3
20260508072933 77 254 1.0 2.0 0.00 0.00 0.00 17 1012.3
20260508072429 77 218 1.0 2.0 0.00 0.00 0.00 17 1012.4
20260508071927 77 198 2.0 3.0 0.00 0.00 0.00 17 1012.4
20260508071425 77 176 3.0 4.0 0.00 0.00 0.00 17 1012.2
20260508070922 76 212 1.0 2.0 0.00 0.00 0.00 17 1012.5
20260508070420 77 213 0.0 2.0 0.00 0.00 0.00 17 1012.5
20260508065918 78 278 2.0 3.0 0.00 0.00 0.00 17 1012.2
20260508065415 78 257 3.0 4.0 0.00 0.00 0.00 17 1012.3
20260508064914 78 261 3.0 4.0 0.00 0.00 0.00 16 1012.3
20260508064410 76 248 2.0 3.0 0.00 0.00 0.00 16 1012.5
20260508063908 78 267 2.0 5.0 0.00 0.00 0.00 16 1012.3
20260508063406 78 273 6.0 7.0 0.00 0.00 0.00 16 1012.3
20260508062903 78 268 5.0 6.0 0.00 0.00 0.00 15 1012.3
20260508062400 77 272 6.0 7.0 0.00 0.00 0.00 15 1012.4
20260508061857 77 262 3.0 4.0 0.00 0.00 0.00 14 1012.4
20260508061354 77 280 3.0 4.0 0.00 0.00 0.00 14 1012.4
20260508060851 76 261 3.0 3.0 0.00 0.00 0.00 15 1012.3
20260508060344 76 255 2.0 2.0 0.00 0.00 0.00 14 1012.4
20260508055843 76 247 2.0 2.0 0.00 0.00 0.00 15 1012.4
20260508055341 75 226 1.0 2.0 0.00 0.00 0.00 15 1012.4
20260508054837 74 179 1.0 2.0 0.00 0.00 0.00 15 1012.5
20260508054335 74 136 1.0 1.0 0.00 0.00 0.00 15 1012.3
20260508053832 73 96 0.0 2.0 0.00 0.00 0.00 15 1012.4
20260508053329 73 46 1.0 2.0 0.00 0.00 0.00 15 1012.3
20260508052826 74 343 0.0 1.0 0.00 0.00 0.00 14 1012.3
20260508052324 74 262 2.0 2.0 0.00 0.00 0.00 15 1012.3
20260508051820 74 344 2.0 2.0 0.00 0.00 0.00 14 1012.4
20260508051315 75 341 2.0 2.0 0.00 0.00 0.00 14 1012.2
20260508050812 76 271 3.0 3.0 0.00 0.00 0.00 14 1012.4
20260508050309 76 267 1.0 2.0 0.00 0.00 0.00 14 1012.2
20260508045805 76 259 1.0 2.0 0.00 0.00 0.00 14 1012.2
20260508045306 77 269 0.0 0.0 0.00 0.00 0.00 14 1012.2
20260508044800 77 331 1.0 2.0 0.00 0.00 0.00 14 1012.1
20260508044256 77 348 0.0 2.0 0.00 0.00 0.00 14 1012.2
20260508043753 77 41 2.0 2.0 0.00 0.00 0.00 14 1012.2
20260508043250 76 57 1.0 2.0 0.00 0.00 0.00 13 1012.0
20260508042746 78 72 0.0 2.0 0.00 0.00 0.00 13 1012.0
20260508042244 79 231 1.0 2.0 0.00 0.00 0.00 13 1011.7
20260508041741 80 233 2.0 2.0 0.00 0.00 0.00 13 1011.8
20260508041237 81 239 3.0 4.0 0.00 0.00 0.00 13 1011.7
20260508040734 82 231 3.0 5.0 0.00 0.00 0.00 13 1011.9
20260508040231 82 238 4.0 5.0 0.00 0.00 0.00 13 1011.8
20260508035728 81 238 5.0 6.0 0.00 0.00 0.00 13 1011.7
20260508035226 80 235 4.0 5.0 0.00 0.00 0.00 13 1011.7
20260508034722 80 235 4.0 5.0 0.00 0.00 0.00 12 1011.5
20260508034220 80 241 4.0 5.0 0.00 0.00 0.00 12 1011.7
20260508033717 81 231 4.0 5.0 0.00 0.00 0.00 12 1011.3
20260508033216 82 243 4.0 5.0 0.00 0.00 0.00 11 1011.6
20260508032713 83 249 4.0 6.0 0.00 0.00 0.00 11 1011.4
20260508032209 84 260 6.0 8.0 0.00 0.00 0.00 11 1011.4
20260508031706 83 254 9.0 11.0 0.00 0.00 0.00 11 1011.4
20260508031202 83 244 4.0 5.0 0.00 0.00 0.00 11 1011.3
20260508030658 84 244 4.0 4.0 0.00 0.00 0.00 11 1011.2
20260508030156 85 251 4.0 5.0 0.00 0.00 0.00 11 1011.0
20260508025652 86 255 4.0 5.0 0.00 0.00 0.00 11 1011.2
20260508025149 86 265 4.0 4.0 0.00 0.00 0.00 11 1010.9
20260508024645 86 263 4.0 4.0 0.00 0.00 0.00 10 1010.8
20260508024143 87 272 4.0 4.0 0.00 0.00 0.00 10 1010.9
20260508023639 87 260 4.0 4.0 0.00 0.00 0.00 10 1010.8
20260508023137 87 256 3.0 4.0 0.00 0.00 0.00 10 1010.7
20260508022632 88 272 4.0 4.0 0.00 0.00 0.00 10 1010.7
20260508022129 88 283 5.0 5.0 0.00 0.00 0.00 10 1010.6
20260508021625 89 282 5.0 7.0 0.00 0.00 0.00 10 1010.6
20260508021121 89 278 5.0 8.0 0.00 0.00 0.00 10 1010.5
20260508020619 89 262 4.0 7.0 0.00 0.00 0.00 9 1010.3
20260508020117 90 278 6.0 6.0 0.00 0.00 0.00 9 1010.5
20260508015614 90 279 6.0 9.0 0.00 0.00 0.00 9 1010.5
20260508015111 91 276 4.0 7.0 0.00 0.00 0.00 9 1010.3
20260508014607 91 279 7.0 8.0 0.00 0.00 0.00 9 1010.3
20260508014103 92 299 7.0 9.0 0.00 0.00 0.00 9 1010.4
20260508013559 92 257 4.0 6.0 0.00 0.00 0.00 8 1010.3
20260508013057 92 241 6.0 7.0 0.00 0.00 0.00 8 1010.4
20260508012554 92 268 4.0 6.0 0.00 0.00 0.00 8 1010.2
20260508012051 92 297 8.0 9.0 0.00 0.00 0.00 8 1010.1
20260508011549 93 284 6.0 11.0 0.00 0.00 0.00 8 1010.2
20260508011046 93 310 6.0 7.0 0.00 0.00 0.00 8 1010.4
20260508010543 93 298 5.0 10.0 0.00 0.00 0.00 8 1010.1
20260508010041 93 269 5.0 11.0 0.00 0.00 0.00 8 1010.1
20260508005537 93 200 5.0 7.0 0.00 0.00 0.00 8 1010.3
20260508005034 93 257 4.0 8.0 0.00 0.00 0.00 8 1010.3
20260508004530 93 262 3.0 7.0 0.00 0.00 0.00 8 1010.1
20260508004027 94 119 1.0 3.0 0.00 0.00 0.00 8 1010.3
20260508003523 94 257 4.0 5.0 0.00 0.00 0.00 7 1010.2
20260508003021 94 190 3.0 3.0 0.00 0.00 0.00 7 1010.1
20260508002517 94 241 6.0 9.0 0.00 0.00 0.00 8 1010.2
20260508002015 94 297 8.0 11.0 0.00 0.00 0.00 7 1010.2
20260508001510 94 281 6.0 11.0 0.00 0.00 0.00 7 1009.9
20260508001006 95 256 2.0 5.0 0.00 0.00 0.00 7 1010.1
20260508000502 94 153 3.0 5.0 0.00 0.00 0.00 7 1009.9
20260507235959 94 238 1.0 3.0 0.00 0.00 0.00 7 1010.2
20260507235456 94 253 6.0 8.0 0.00 0.00 0.00 7 1010.1
20260507234954 94 300 6.0 11.0 0.00 0.00 0.00 7 1010.1
20260507234450 95 294 6.0 9.0 0.00 0.00 0.00 7 1010.2
20260507233946 95 336 4.0 6.0 0.00 0.00 0.00 7 1010.3
20260507233443 94 212 4.0 6.0 0.00 0.00 0.00 8 1010.1
20260507232942 93 102 3.0 4.0 0.00 0.00 0.00 8 1010.3
20260507232438 92 103 6.0 9.0 0.00 0.00 0.00 8 1010.2
20260507231935 92 19 3.0 11.0 0.00 0.00 0.00 8 1010.4
20260507231431 93 298 7.0 9.0 0.00 0.00 0.00 8 1010.2
20260507230928 93 76 4.0 9.0 0.00 0.00 0.00 8 1010.3
20260507230426 93 57 7.0 10.0 0.00 0.00 0.00 8 1010.3
20260507225926 92 58 4.0 9.0 0.00 0.00 0.00 8 1010.2
20260507225422 93 7 7.0 12.0 0.00 0.00 0.00 8 1010.4
20260507224919 93 8 7.0 8.0 0.00 0.00 0.00 8 1010.4
20260507224414 92 109 7.0 12.0 0.00 0.00 0.00 9 1010.5
20260507223911 93 89 7.0 9.0 0.00 0.00 0.00 8 1010.7
20260507223407 95 74 5.0 6.0 0.00 0.00 0.00 8 1010.6
20260507222905 94 306 2.0 4.0 0.00 0.00 0.00 9 1010.6
20260507222401 94 209 4.0 8.0 0.00 0.00 0.00 9 1010.5
20260507221858 93 116 4.0 5.0 0.00 0.00 0.00 9 1010.7
20260507221354 93 147 3.0 5.0 0.00 0.00 0.00 9 1011.0
20260507220851 93 115 7.0 13.0 0.00 0.00 0.00 9 1010.9
20260507220349 93 127 3.0 4.0 0.00 0.00 0.00 9 1011.2
20260507215845 93 82 3.0 4.0 0.00 0.00 0.00 9 1011.0
20260507215342 92 213 6.0 9.0 0.00 0.00 0.00 9 1011.1
20260507214839 92 163 7.0 9.0 0.00 0.00 0.00 9 1011.0
20260507214337 92 159 11.0 11.0 0.00 0.00 0.00 9 1011.2
20260507213831 94 135 4.0 10.0 0.00 0.00 0.00 9 1011.2
20260507213329 93 185 3.0 4.0 0.00 0.00 0.00 9 1011.3
20260507212825 92 22 4.0 5.0 0.00 0.00 0.00 9 1011.5
20260507212321 91 116 4.0 9.0 0.00 0.00 0.00 9 1011.4
20260507211818 92 102 6.0 7.0 0.00 0.00 0.00 9 1011.5
20260507211315 91 240 4.0 4.0 0.00 0.00 0.00 9 1011.6
20260507210812 91 87 6.0 11.0 0.00 0.00 0.00 9 1011.8
20260507210308 92 19 10.0 11.0 0.00 0.00 0.00 9 1012.0
20260507205804 92 314 6.0 7.0 0.00 0.00 0.00 10 1012.0
20260507205306 91 313 3.0 9.0 0.00 0.00 0.00 10 1012.0
20260507204758 91 343 6.0 10.0 0.00 0.00 0.00 10 1012.0
20260507204256 91 4 5.0 9.0 0.00 0.00 0.00 10 1012.3
20260507203753 91 350 9.0 11.0 0.00 0.00 0.00 10 1012.3
20260507203251 91 10 8.0 14.0 0.00 0.00 0.00 10 1012.3
20260507202747 90 112 5.0 9.0 0.00 0.00 0.00 10 1012.3
20260507202243 91 153 3.0 4.0 0.00 0.00 0.00 12 1012.5
20260507201738 90 271 3.0 6.0 0.00 0.00 0.00 12 1012.7
20260507201235 90 115 2.0 8.0 0.00 0.00 0.00 12 1012.7
20260507200731 90 165 1.0 4.0 0.00 0.00 0.00 12 1012.9
20260507200227 89 207 5.0 6.0 0.00 0.00 0.00 12 1012.9
20260507195724 90 116 8.0 11.0 0.00 0.00 0.00 12 1012.8
20260507195222 89 123 1.0 6.0 0.00 0.00 0.00 13 1013.0
20260507194719 89 135 7.0 10.0 0.00 0.00 0.00 13 1013.0
20260507194215 89 158 6.0 7.0 0.00 0.00 0.00 13 1013.1
20260507193711 89 158 5.0 10.0 0.00 0.00 0.00 13 1013.1
20260507193208 88 335 0.0 6.0 0.00 0.00 0.00 13 1013.2
20260507192704 89 67 5.0 9.0 0.00 0.00 0.00 13 1013.5
20260507192201 88 68 3.0 4.0 0.00 0.00 0.00 14 1013.7
20260507191656 87 351 3.0 5.0 0.00 0.00 0.00 14 1013.6
20260507191154 87 42 4.0 8.0 0.00 0.00 0.00 14 1013.5
20260507190651 88 33 10.0 15.0 0.00 0.00 0.00 13 1013.9
20260507190150 87 53 4.0 5.0 0.00 0.00 0.00 14 1013.8
20260507185647 87 5 6.0 10.0 0.00 0.00 0.00 15 1013.8
20260507185144 86 66 4.0 6.0 0.00 0.00 0.00 15 1013.9
20260507184642 86 28 5.0 7.0 0.00 0.00 0.00 15 1014.0
20260507184140 86 69 6.0 11.0 0.00 0.00 0.00 15 1014.0
20260507183635 87 38 2.0 5.0 0.00 0.00 0.00 15 1014.1
20260507183132 86 35 5.0 6.0 0.00 0.00 0.00 15 1014.2
20260507182629 85 55 4.0 7.0 0.00 0.00 0.00 15 1014.3
20260507182125 85 21 7.0 8.0 0.00 0.00 0.00 16 1014.4
20260507181622 85 340 4.0 10.0 0.00 0.00 0.00 17 1014.5
20260507181118 85 353 6.0 8.0 0.00 0.00 0.00 17 1014.4
20260507180614 85 351 6.0 10.0 0.00 0.00 0.00 16 1014.4
20260507180112 85 23 3.0 7.0 0.00 0.00 0.00 17 1014.5
20260507175608 85 56 2.0 6.0 0.00 0.00 0.00 17 1014.5
20260507175105 84 1 5.0 10.0 0.00 0.00 0.00 17 1014.6
20260507174602 84 16 7.0 10.0 0.00 0.00 0.00 17 1014.7
20260507174100 83 62 0.0 3.0 0.00 0.00 0.00 17 1014.6
20260507173557 83 30 7.0 12.0 0.00 0.00 0.00 18 1014.8
20260507173054 83 104 4.0 6.0 0.00 0.00 0.00 17 1014.7
20260507172550 83 48 10.0 14.0 0.00 0.00 0.00 18 1014.5
20260507172047 83 6 5.0 9.0 0.00 0.00 0.00 18 1014.7
20260507171542 83 62 4.0 11.0 0.00 0.00 0.00 18 1014.9
20260507171039 83 56 10.0 14.0 0.00 0.00 0.00 18 1014.7
20260507170536 83 66 9.0 13.0 0.00 0.00 0.00 18 1014.8
20260507170033 83 62 8.0 10.0 0.00 0.00 0.00 18 1014.7
20260507165529 83 28 4.0 6.0 0.00 0.00 0.00 18 1014.8
20260507165026 82 6 5.0 13.0 0.00 0.00 0.00 18 1014.6
20260507164522 82 64 11.0 12.0 0.00 0.00 0.00 18 1014.8
20260507164019 82 52 7.0 12.0 0.00 0.00 0.00 18 1014.8
20260507163516 82 56 10.0 14.0 0.00 0.00 0.00 19 1014.9
20260507163014 81 50 13.0 13.0 0.00 0.00 0.00 19 1014.8
20260507162509 80 71 10.0 11.0 0.00 0.00 0.00 19 1014.8
20260507162006 79 59 6.0 9.0 0.00 0.00 0.00 20 1014.9
20260507161502 79 21 6.0 11.0 0.00 0.00 0.00 20 1015.0
20260507160959 79 51 9.0 10.0 0.00 0.00 0.00 20 1015.1
20260507160455 78 58 2.0 7.0 0.00 0.00 0.00 20 1015.1
20260507155950 78 39 6.0 9.0 0.00 0.00 0.00 20 1015.2
20260507155447 79 77 9.0 10.0 0.00 0.00 0.00 19 1015.2
20260507154944 80 22 1.0 4.0 0.00 0.00 0.00 19 1015.2
20260507154440 79 166 0.0 3.0 0.00 0.00 0.00 19 1015.5
20260507153938 79 115 3.0 5.0 0.00 0.00 0.00 19 1015.5
20260507153435 78 328 2.0 4.0 0.00 0.00 0.00 19 1015.4
20260507152931 78 321 3.0 4.0 0.00 0.00 0.00 19 1015.2
20260507152427 80 248 4.0 4.0 0.00 0.00 0.00 18 1015.2
20260507151923 79 134 2.0 5.0 0.00 0.00 0.00 19 1015.2
20260507151420 78 236 1.0 2.0 0.00 0.00 0.00 18 1015.5
20260507150917 76 314 0.0 2.0 0.00 0.00 0.00 19 1015.4
20260507150413 75 152 1.0 5.0 0.00 0.00 0.00 20 1015.5
20260507145910 74 189 5.0 6.0 0.00 0.00 0.00 21 1015.2
20260507145406 74 138 5.0 6.0 0.00 0.00 0.00 21 1015.2
20260507144903 75 127 2.0 4.0 0.00 0.00 0.00 20 1015.4
20260507144400 74 139 4.0 4.0 0.00 0.00 0.00 20 1015.4
20260507143857 74 88 2.0 2.0 0.00 0.00 0.00 21 1015.5
20260507143354 73 46 3.0 3.0 0.00 0.00 0.00 21 1015.4
20260507142851 73 71 5.0 5.0 0.00 0.00 0.00 21 1015.6
20260507142347 73 60 2.0 3.0 0.00 0.00 0.00 20 1015.2
20260507141843 72 54 1.0 2.0 0.00 0.00 0.00 20 1015.2
20260507141340 71 140 3.0 3.0 0.00 0.00 0.00 21 1015.1
20260507140837 72 104 2.0 2.0 0.00 0.00 0.00 20 1014.9
20260507140333 69 128 0.0 3.0 0.00 0.00 0.00 22 1015.1
20260507135831 68 185 2.0 3.0 0.00 0.00 0.00 22 1015.1
20260507135328 66 178 3.0 5.0 0.00 0.00 0.00 23 1014.9
20260507134825 65 164 4.0 4.0 0.00 0.00 0.00 23 1015.0